Location: Kerdrein
(48.5583°N, 4.4903°W)
Time: 10:20:24
(UTC+00:00)

Daily predictions for brighter satellites

Satellite Brightness Start Highest point End
(mag) Time Altitude Azimuth Time Altitude Azimuth Time Altitude Azimuth
USA 306 3.5 16:55:07 10° W 16:59:14 46° NNW 17:03:21 10° ENE
Meteor 2-19 Rocket 4.4 16:54:56 10° N 17:01:02 71° ENE 17:07:07 10° SSE
Cosmos 1271 Rocket 3.4 16:57:10 10° SSW 17:01:04 60° WNW 17:05:02 10° N
Cosmos 1697 Rocket 2.9 16:55:58 10° NNW 17:01:24 46° NE 17:06:47 10° SE
Cosmos 2369 4.3 16:59:20 10° NNW 17:04:37 36° NE 17:09:52 10° ESE
Cosmos 1980 Rocket 3.0 17:00:01 10° NNW 17:05:01 30° NE 17:09:57 10° ESE
USA 267 3.4 16:59:03 10° ENE 17:05:36 69° SE 17:12:07 10° SW
Cosmos 1763 Rocket 3.9 17:02:46 10° S 17:07:28 40° ESE 17:12:14 10° NE
COSMO-SKYMED 1 4.5 17:06:01 10° ENE 17:07:39 12° E 17:09:16 10° ESE
Cosmos 1939 Rocket 3.1 17:05:33 10° SE 17:09:31 48° ENE 17:13:27 10° N
SL-24 R/B - RUBIN 2 4.4 17:05:34 10° NNW 17:09:46 32° NE 17:13:42 10° ESE
Meteor 2-2 Rocket 4.5 17:04:01 10° S 17:10:04 90° NNW 17:16:06 10° NNE
Meteor 1-25 Rocket 4.4 17:05:24 10° N 17:10:47 48° ENE 17:16:11 10° SSE
SL-16 R/B 3.8 17:11:06 10° N 17:14:22 15° NE 17:17:26 10° ENE
Cosmos 1937 Rocket 3.9 17:09:29 10° NNW 17:14:35 44° ENE 17:19:39 10° SE
USA 307 3.6 17:13:28 10° W 17:17:35 44° N 17:21:20 12° ENE
USA 229 DEB 3.9 17:11:36 10° NW 17:18:54 80° NE 17:26:42 10° SE
USA 229 3.9 17:11:41 10° NW 17:19:00 80° NE 17:26:48 10° SE
Cosmos 2082 Rocket 3.4 17:16:19 10° SSE 17:20:35 22° E 17:24:27 11° NE
NOAA 6 4.0 17:17:47 10° SSE 17:22:52 66° ENE 17:27:58 10° N
Cosmos 990 Rocket 4.0 17:18:02 10° NNW 17:23:17 87° ENE 17:28:27 10° SSE
Cosmos 2026 Rocket 4.2 17:17:40 10° N 17:23:35 46° ENE 17:29:23 10° SSE
Cosmos 1408 Rocket 3.9 17:19:36 10° NNW 17:23:56 69° W 17:28:17 10° S
SeaSat 1 4.3 17:21:17 10° N 17:25:12 24° NW 17:29:07 10° W
ATLAS 2AS CENTAUR R/B 4.2 17:20:21 10° WNW 17:26:57 29° NNW 17:33:18 10° NE
Meteor PRIRODA 4.1 17:23:40 10° S 17:27:16 64° WSW 17:30:53 10° NNW
CZ-4B DEB 4.3 17:22:07 10° SE 17:27:30 58° ENE 17:32:54 10° N
CORIOLIS 4.1 17:22:15 10° SSE 17:27:35 65° ENE 17:32:59 10° N
USA 276 3.5 17:24:55 10° W 17:27:50 38° SSW 17:30:47 10° SE
Cosmos 372 Rocket 4.5 17:23:59 10° N 17:28:52 38° ENE 17:33:45 10° SE
Cosmos 2278 4.4 17:23:55 10° NNW 17:29:02 33° NE 17:34:08 10° ESE
Cosmos 1602 4.0 17:25:47 10° N 17:29:31 46° ENE 17:33:14 10° SSE
Okean O Rocket 2.7 17:27:18 10° ESE 17:30:52 24° ENE 17:34:26 10° N
Cosmos 1743 Rocket 3.4 17:27:20 10° N 17:31:41 79° E 17:36:00 10° SSE
ATLAS CENTAUR R/B 3.4 17:28:39 10° W 17:31:59 21° NNW 17:35:32 10° NNE
Cosmos 1782 3.5 17:32:33 10° SSE 17:36:09 33° E 17:39:44 10° NNE
Cosmos 1151 Rocket 4.3 17:33:04 10° SE 17:36:17 21° E 17:38:08 16° NE
COSMOS 2406 3.5 17:32:27 10° S 17:37:57 48° ESE 17:43:05 12° NE
COSMOS 2455 3.5 17:34:14 10° S 17:39:39 36° ESE 17:43:55 16° NE
USA 234 3.5 17:33:33 10° SE 17:40:06 77° SW 17:46:40 10° WNW
USA 308 3.6 17:36:05 10° WNW 17:40:08 40° N 17:42:51 18° NE
NOSS 3-1 (A) 4.3 17:35:01 10° NW 17:42:27 77° SW 17:51:12 10° SSE
Cosmos 1666 Rocket 4.3 17:39:00 10° N 17:43:00 31° ENE 17:46:56 10° SE
Cosmos 1833 Rocket 2.7 17:38:51 10° SSW 17:44:24 68° ESE 17:49:48 11° NNE
ARGOS 3.6 17:39:38 10° SE 17:44:33 37° ENE 17:49:28 10° N
Cosmos 1340 Rocket 3.7 17:41:50 10° NNW 17:45:49 55° W 17:49:48 10° S
Cosmos 858 Rocket 4.4 17:41:17 10° NNW 17:46:36 70° ENE 17:51:50 10° SSE
SJ 16-02 4.4 17:44:48 10° NW 17:47:39 17° W 17:50:29 10° SW
ISS -3.8 17:44:49 10° WNW 17:48:13 71° NNE 17:50:10 23° E
NOSS 2-2 (D) 4.2 17:44:04 10° NW 17:49:01 66° NE 17:55:57 10° SE
NOSS 2-2 (E) 4.3 17:44:27 10° NW 17:49:36 78° NE 17:56:52 10° SE
Cosmos 1809 Rocket 4.4 17:45:24 10° N 17:51:32 79° E 17:57:36 10° SSE
CZ-2D R/B 3.1 17:48:11 10° SSE 17:52:00 65° ENE 17:55:48 10° N
PAYLOAD B 4.2 17:48:55 10° SSE 17:54:30 74° ENE 18:00:07 10° NNW
Lacrosse 5 rocket 2.1 17:51:40 10° NW 17:55:09 31° NNE 17:56:30 25° NE
SKYMED 2 4.2 17:53:45 19° NE 17:56:11 33° E 18:00:08 10° SSE
CZ-4 R/B 3.7 17:59:49 10° NNE 17:59:49 10° NNE 17:59:54 10° NNE
Meteor 2-21 Rocket 4.5 17:51:36 10° N 17:57:38 57° ENE 18:03:34 10° SSE
Landsat 5 4.4 18:00:26 26° E 18:00:29 26° E 18:03:52 10° SSE
ATLAS CENTAUR R/B 2.8 17:50:56 10° SW 18:00:47 79° SE 18:03:22 26° ENE
CZ-4B R/B 3.1 17:56:06 10° SSE 18:01:26 60° ENE 18:06:41 10° N
Cosmos 2360 4.5 17:57:46 10° NNW 18:03:31 73° WSW 18:09:12 10° SSE
Cosmos 1500 3.0 18:00:07 10° N 18:03:52 73° ENE 18:07:36 10° SSE
Cosmos 540 Rocket 3.4 17:59:09 10° SSW 18:04:13 72° ESE 18:08:24 15° NNE
CZ-2C R/B 2.9 17:59:22 11° NNE 18:04:13 44° E 18:09:09 10° S
SL-08 RB Rocket 4.3 18:00:06 10° SE 18:04:16 34° ENE 18:08:27 10° N
GEOS 3 Rocket 4.0 18:02:08 21° E 18:05:18 44° NE 18:10:12 10° NNW
Cosmos 1818 4.1 18:01:28 10° NNW 18:06:38 40° NE 18:09:03 26° E
SMAP 4.0 18:02:36 10° S 18:07:07 50° W 18:11:40 10° NNW
USA 305 3.6 18:03:29 10° WNW 18:07:29 39° N 18:08:56 29° NE
Cosmos 1814 Rocket 4.5 18:03:18 10° S 18:08:07 38° ESE 18:10:08 27° ENE
Cosmos 44 Rocket 3.9 18:05:50 10° NNW 18:10:27 37° NE 18:11:46 31° ENE
CZ-4C R/B 2.9 18:03:45 10° NW 18:10:44 67° NE 18:19:01 10° SE
Meteor 1-26 Rocket 4.3 18:05:46 10° S 18:11:43 78° E 18:17:48 10° NNE
Cosmos 1805 Rocket 4.0 18:07:49 10° NNW 18:12:07 63° W 18:16:23 10° S
Sich 1 3.1 18:08:20 10° NNW 18:12:38 79° W 18:16:56 10° S
Cosmos 1933 3.7 18:08:48 10° SSW 18:12:49 64° WNW 18:16:51 10° N
Cosmos 468 Rocket 4.4 18:09:16 10° SW 18:14:22 61° WNW 18:19:26 11° NNE
MOS 1-B 4.4 18:08:49 10° SSE 18:14:36 85° WSW 18:20:26 10° NNW
Cosmos 1092 Rocket 4.5 18:11:07 10° NNW 18:17:24 65° W 18:23:39 10° S
PSLV R/B 4.4 18:13:53 10° S 18:17:29 54° W 18:21:10 10° NNW
Cosmos 2360 Rocket 3.6 18:18:48 10° N 18:22:13 20° NNE 18:22:13 20° NNE
deb Chang Zheng 4 3.5 18:24:10 10° SSE 18:28:29 87° W 18:32:50 10° NNW
ERBS 4.2 18:30:11 10° WNW 18:32:20 19° NNW 18:32:20 19° NNW
Cosmos 2208 Rocket 4.3 18:27:59 10° S 18:33:05 45° ESE 18:33:46 42° E
Cosmos 1666 2.5 18:29:48 10° N 18:33:33 88° E 18:37:15 10° S
H-2A R/B 2.6 18:30:05 10° S 18:35:11 58° W 18:40:12 10° NNW
Cosmos 2150 Rocket 4.3 18:32:16 10° NNW 18:37:02 44° NE 18:37:02 44° NE
Cosmos 2142 Rocket 4.4 18:31:24 10° S 18:37:33 85° E 18:43:49 10° N
Meteor 1-14 Rocket 4.4 18:33:46 10° NNW 18:39:36 81° W 18:45:31 10° S
USA 306 3.5 18:35:38 10° WNW 18:39:41 41° N 18:39:44 41° N
Meteor 2-16 Rocket 4.4 18:35:07 10° N 18:41:16 84° W 18:47:23 10° S
SJ-11-01 4.4 18:36:49 10° S 18:41:34 79° WSW 18:46:21 10° NNW
Cosmos 2322 Rocket 2.9 18:37:23 10° NNW 18:41:55 34° NE 18:41:55 34° NE
SL-19 R/B 4.5 18:36:58 10° NNE 18:43:00 88° ESE 18:49:36 10° SSW
COSMO-SKYMED 1 2.6 18:42:21 31° N 18:44:23 82° WNW 18:48:44 10° SSW
Cosmos 1697 Rocket 4.4 18:40:14 10° NW 18:45:12 33° WSW 18:50:08 10° SSW
Cosmos 2279 Rocket 3.9 18:40:57 10° S 18:47:11 87° W 18:53:25 10° N
USA 267 3.6 18:45:34 32° NE 18:48:33 56° NNW 18:54:54 10° W
Cosmos 1980 Rocket 2.8 18:43:49 10° NW 18:49:22 57° WSW 18:54:51 10° S
Cosmos 2266 Rocket 3.9 18:44:08 10° N 18:50:29 65° ENE 18:56:51 10° SSE
Cosmos 1812 3.1 18:46:55 10° SSW 18:50:43 60° WNW 18:51:36 46° NNW
Meteor 1-5 Rocket 4.5 18:45:17 10° NNW 18:51:17 74° W 18:57:10 10° S
Spot 2 4.3 18:51:14 22° SSE 18:54:32 75° ENE 18:59:41 10° NNW
Cosmos 841 Rocket 3.9 18:49:32 10° SW 18:54:37 58° WNW 18:57:22 27° N
Cosmos 1633 Rocket 3.5 18:51:42 10° NNW 18:56:01 61° W 19:00:20 10° S
YAOGAN 1 4.0 18:59:29 27° N 18:59:29 27° N 19:01:28 10° N
MOS 1-B Rocket 4.4 18:51:51 10° N 18:57:34 62° WNW 19:03:59 10° SSW
USA 307 3.8 18:53:58 10° WNW 18:57:22 39° NNW 18:57:22 39° NNW
Cosmos 1125 Rocket 3.7 18:53:07 10° NNW 18:57:27 52° NNE 18:57:27 52° NNE
SL-16 R/B 2.3 18:54:11 10° NNW 18:59:21 55° NE 18:59:21 55° NE
Meteor 2-15 Rocket 4.3 18:56:57 10° S 19:02:58 63° E 19:03:20 61° ENE
Cosmos 2082 Rocket 2.4 18:58:29 10° SW 19:04:08 67° WNW 19:06:20 38° N
Okean O Rocket 2.7 19:02:44 10° S 19:06:59 44° W 19:11:16 10° NNW
Cosmos 2333 Rocket 4.0 19:04:07 10° N 19:06:12 18° N 19:06:12 18° N
ATLAS CENTAUR R/B 4.2 19:11:12 10° NNW 19:12:21 11° N 19:12:21 11° N
Cosmos 2278 4.4 19:07:54 10° NW 19:13:27 52° WSW 19:18:55 10° S
Cosmos 1151 Rocket 4.1 19:09:26 10° SSW 19:13:32 43° WNW 19:15:02 31° NNW
ATLAS 2AS CENTAUR R/B 4.0 19:14:10 10° NW 19:20:20 26° N 19:20:53 26° NNE
USA 308 4.5 19:16:27 10° WNW 19:18:52 30° NW 19:18:52 30° NW
Cosmos 1655 Rocket 4.1 19:15:36 10° NNW 19:22:00 75° W 19:28:20 10° S
ISS -1.0 19:21:51 10° W 19:23:11 19° W 19:23:11 19° W
COSMOS 2455 3.5 19:19:35 10° WSW 19:25:26 51° NW 19:27:05 40° N
Cosmos 1833 Rocket 4.5 19:24:08 10° WSW 19:28:50 26° NW 19:31:30 19° N
Lacrosse 5 rocket 3.5 19:30:35 10° WNW 19:32:07 23° WNW 19:32:07 23° WNW
Cosmos 2219 Rocket 4.3 19:32:55 10° NNW 19:34:05 15° N 19:34:05 15° N
GEOS 3 Rocket 4.4 19:43:16 48° SW 19:43:19 48° SW 19:48:21 10° NW
CZ-2C R/B 4.3 19:40:54 15° N 19:44:22 30° WNW 19:48:48 10° WSW
ATLAS 5 CENTAUR R/B 4.1 19:44:04 10° NW 19:47:04 25° WNW 19:47:04 25° WNW
Meteor 1-11 Rocket 4.4 19:45:28 10° NNW 19:50:28 51° WNW 19:50:28 51° WNW
CZ-4C R/B 4.1 19:52:30 10° NW 19:59:17 40° WSW 20:05:33 15° S
Cosmos 2360 Rocket 4.1 20:02:07 10° NNW 20:04:00 22° NNW 20:04:00 22° NNW
Cosmos 2322 Rocket 4.1 20:21:23 10° NW 20:23:46 24° NW 20:23:46 24° NW
USA 267 4.5 20:32:54 34° NW 20:32:54 34° NW 20:37:00 10° WNW
SL-16 R/B 4.4 20:38:52 10° NW 20:41:15 21° WNW 20:41:15 21° WNW
